| time (UTC) | temp F | wind direction | speed MPH | gust MPH | rain 1hr in | rain 24hr in | rain mn in | humidity % | barometer mb |
| 20260831110004 | 64 | 203 | 0.0 | 0.0 | 0.00 | 0.41 | 0.30 | 95 | 1019.4 |
| 20260831105504 | 64 | 203 | 0.0 | 0.0 | 0.00 | 0.41 | 0.30 | 95 | 1019.4 |
| 20260831105007 | 64 | 203 | 0.0 | 0.0 | 0.00 | 0.41 | 0.30 | 95 | 1019.4 |
| 20260831104516 | 64 | 203 | 0.0 | 0.0 | 0.00 | 0.41 | 0.30 | 95 | 1019.3 |
| 20260831104007 | 64 | 203 | 0.0 | 0.0 | 0.00 | 0.41 | 0.30 | 95 | 1019.3 |
| 20260831103507 | 64 | 203 | 0.0 | 0.0 | 0.00 | 0.41 | 0.30 | 95 | 1019.3 |
| 20260831103010 | 64 | 203 | 0.0 | 0.0 | 0.00 | 0.41 | 0.30 | 95 | 1019.2 |
| 20260831102507 | 64 | 203 | 0.0 | 0.0 | 0.00 | 0.41 | 0.30 | 95 | 1019.2 |
| 20260831102011 | 64 | 203 | 0.0 | 0.0 | 0.00 | 0.41 | 0.30 | 95 | 1019.1 |
| 20260831101522 | 64 | 203 | 0.0 | 0.0 | 0.00 | 0.41 | 0.30 | 95 | 1019.0 |
| 20260831101014 | 65 | 203 | 0.0 | 0.0 | 0.00 | 0.41 | 0.30 | 95 | 1018.9 |
| 20260831100512 | 65 | 203 | 0.0 | 0.0 | 0.00 | 0.41 | 0.30 | 95 | 1018.8 |
| 20260831100027 | 65 | 203 | 0.0 | 0.0 | 0.00 | 0.41 | 0.30 | 95 | 1018.8 |
| 20260831095503 | 65 | 203 | 0.0 | 0.0 | 0.00 | 0.41 | 0.30 | 95 | 1018.7 |
| 20260831095004 | 65 | 203 | 0.0 | 0.0 | 0.00 | 0.41 | 0.30 | 95 | 1018.6 |
| 20260831094504 | 65 | 203 | 0.0 | 0.0 | 0.00 | 0.41 | 0.30 | 95 | 1018.4 |
| 20260831094003 | 65 | 203 | 0.0 | 0.0 | 0.00 | 0.41 | 0.30 | 95 | 1018.4 |
| 20260831093507 | 65 | 203 | 0.0 | 0.0 | 0.00 | 0.41 | 0.30 | 95 | 1018.4 |
| 20260831093005 | 65 | 203 | 0.0 | 0.0 | 0.00 | 0.41 | 0.30 | 95 | 1018.4 |
| 20260831092508 | 65 | 203 | 0.0 | 0.0 | 0.00 | 0.41 | 0.30 | 95 | 1018.4 |
| 20260831092014 | 65 | 203 | 0.0 | 0.0 | 0.00 | 0.41 | 0.30 | 95 | 1018.3 |
| 20260831091510 | 65 | 203 | 0.0 | 0.0 | 0.00 | 0.41 | 0.30 | 95 | 1018.3 |
| 20260831091010 | 65 | 203 | 0.0 | 0.0 | 0.00 | 0.41 | 0.30 | 95 | 1018.3 |
| 20260831090517 | 66 | 203 | 0.0 | 0.0 | 0.00 | 0.41 | 0.30 | 95 | 1018.2 |
| 20260831090018 | 66 | 203 | 0.0 | 0.0 | 0.00 | 0.41 | 0.30 | 95 | 1018.2 |
| 20260831085513 | 66 | 203 | 0.0 | 0.0 | 0.00 | 0.41 | 0.30 | 95 | 1018.2 |
| 20260831085016 | 66 | 203 | 0.0 | 0.0 | 0.00 | 0.41 | 0.30 | 95 | 1018.2 |
| 20260831084528 | 66 | 203 | 0.0 | 0.0 | 0.00 | 0.41 | 0.30 | 95 | 1018.1 |
| 20260831084003 | 66 | 203 | 0.0 | 0.0 | 0.00 | 0.41 | 0.30 | 95 | 1018.1 |
| 20260831083505 | 66 | 203 | 0.0 | 0.0 | 0.00 | 0.41 | 0.30 | 95 | 1018.1 |
| 20260831083007 | 66 | 203 | 0.0 | 0.0 | 0.00 | 0.41 | 0.30 | 95 | 1018.1 |
| 20260831082505 | 66 | 203 | 0.0 | 0.0 | 0.00 | 0.41 | 0.30 | 95 | 1017.9 |
| 20260831082006 | 66 | 203 | 0.0 | 0.0 | 0.00 | 0.41 | 0.30 | 95 | 1017.9 |
| 20260831081513 | 66 | 203 | 0.0 | 0.0 | 0.00 | 0.41 | 0.30 | 95 | 1017.9 |
| 20260831081006 | 66 | 203 | 0.0 | 0.0 | 0.00 | 0.41 | 0.30 | 95 | 1017.9 |
| 20260831080509 | 67 | 203 | 0.0 | 0.0 | 0.00 | 0.41 | 0.30 | 95 | 1017.9 |
| 20260831080017 | 67 | 203 | 0.0 | 0.0 | 0.00 | 0.41 | 0.30 | 95 | 1017.9 |
| 20260831075512 | 67 | 203 | 0.0 | 0.0 | 0.00 | 0.41 | 0.30 | 95 | 1017.9 |
| 20260831075014 | 67 | 203 | 0.0 | 0.0 | 0.00 | 0.41 | 0.30 | 95 | 1017.9 |
| 20260831074524 | 67 | 203 | 0.0 | 0.0 | 0.00 | 0.41 | 0.30 | 95 | 1017.8 |
| 20260831074018 | 67 | 203 | 0.0 | 0.0 | 0.00 | 0.41 | 0.30 | 95 | 1017.9 |
| 20260831073516 | 67 | 203 | 0.0 | 0.0 | 0.00 | 0.41 | 0.30 | 95 | 1017.8 |
| 20260831073029 | 67 | 203 | 0.0 | 0.0 | 0.00 | 0.41 | 0.30 | 95 | 1017.6 |
| 20260831072503 | 67 | 203 | 0.0 | 0.0 | 0.00 | 0.41 | 0.30 | 95 | 1017.6 |
| 20260831072001 | 67 | 203 | 0.0 | 0.0 | 0.00 | 0.41 | 0.30 | 95 | 1017.6 |
| 20260831071507 | 67 | 203 | 0.0 | 0.0 | 0.00 | 0.41 | 0.30 | 95 | 1017.5 |
| 20260831071008 | 67 | 203 | 0.0 | 0.0 | 0.00 | 0.41 | 0.30 | 95 | 1017.5 |
| 20260831070508 | 67 | 203 | 0.0 | 0.0 | 0.00 | 0.41 | 0.30 | 95 | 1017.5 |
| 20260831070020 | 67 | 203 | 0.0 | 0.0 | 0.00 | 0.41 | 0.30 | 95 | 1017.4 |
| 20260831065509 | 67 | 203 | 0.0 | 0.0 | 0.00 | 0.41 | 0.30 | 95 | 1017.4 |
| 20260831065011 | 67 | 203 | 0.0 | 0.0 | 0.00 | 0.41 | 0.30 | 95 | 1017.4 |
| 20260831064520 | 67 | 203 | 0.0 | 0.0 | 0.00 | 0.41 | 0.30 | 95 | 1017.3 |
| 20260831064017 | 67 | 203 | 0.0 | 0.0 | 0.00 | 0.41 | 0.30 | 95 | 1017.3 |
| 20260831063516 | 67 | 203 | 0.0 | 0.0 | 0.00 | 0.41 | 0.30 | 95 | 1017.2 |
| 20260831063028 | 67 | 203 | 0.0 | 0.0 | 0.00 | 0.41 | 0.30 | 95 | 1017.2 |
| 20260831062517 | 67 | 203 | 0.0 | 0.0 | 0.00 | 0.41 | 0.30 | 95 | 1017.0 |
| 20260831062016 | 67 | 203 | 0.0 | 0.0 | 0.00 | 0.41 | 0.30 | 95 | 1017.0 |
| 20260831061529 | 67 | 203 | 0.0 | 0.0 | 0.00 | 0.41 | 0.30 | 95 | 1017.0 |
| 20260831061010 | 67 | 203 | 0.0 | 0.0 | 0.01 | 0.41 | 0.30 | 95 | 1017.1 |
| 20260831060506 | 67 | 203 | 0.0 | 0.0 | 0.02 | 0.41 | 0.30 | 95 | 1017.1 |
| 20260831060009 | 67 | 203 | 0.0 | 0.0 | 0.05 | 0.41 | 0.30 | 95 | 1017.1 |
| 20260831055510 | 67 | 203 | 0.0 | 0.0 | 0.11 | 0.41 | 0.30 | 95 | 1017.3 |
| 20260831055013 | 67 | 203 | 0.0 | 0.0 | 0.14 | 0.41 | 0.30 | 95 | 1017.4 |
| 20260831054517 | 68 | 203 | 0.0 | 0.0 | 0.19 | 0.41 | 0.30 | 95 | 1017.5 |
| 20260831054011 | 67 | 203 | 0.0 | 0.0 | 0.21 | 0.41 | 0.30 | 95 | 1017.4 |
| 20260831053510 | 67 | 203 | 0.0 | 0.0 | 0.22 | 0.41 | 0.30 | 95 | 1017.3 |
| 20260831053025 | 67 | 203 | 0.0 | 0.0 | 0.24 | 0.41 | 0.30 | 95 | 1017.1 |
| 20260831052514 | 68 | 203 | 0.0 | 0.0 | 0.24 | 0.41 | 0.30 | 95 | 1017.2 |
| 20260831052016 | 68 | 203 | 0.0 | 0.0 | 0.26 | 0.41 | 0.30 | 95 | 1017.1 |
| 20260831051545 | 68 | 203 | 0.0 | 0.0 | 0.27 | 0.41 | 0.30 | 94 | 1017.2 |
| 20260831051019 | 68 | 203 | 0.0 | 0.0 | 0.27 | 0.40 | 0.29 | 94 | 1017.1 |
| 20260831050515 | 68 | 203 | 0.0 | 0.0 | 0.27 | 0.39 | 0.28 | 94 | 1017.3 |
| 20260831050036 | 68 | 203 | 0.0 | 0.0 | 0.25 | 0.36 | 0.25 | 94 | 1017.4 |
| 20260831045506 | 68 | 203 | 0.0 | 0.0 | 0.20 | 0.30 | 0.19 | 94 | 1017.6 |
| 20260831045009 | 68 | 203 | 0.0 | 0.0 | 0.18 | 0.27 | 0.16 | 94 | 1017.4 |
| 20260831044512 | 68 | 203 | 0.0 | 0.0 | 0.14 | 0.22 | 0.11 | 94 | 1017.5 |
| 20260831044009 | 69 | 203 | 0.0 | 0.0 | 0.12 | 0.20 | 0.09 | 94 | 1017.5 |
| 20260831043511 | 69 | 203 | 0.0 | 0.0 | 0.12 | 0.19 | 0.08 | 94 | 1017.4 |
| 20260831043018 | 69 | 203 | 0.0 | 0.0 | 0.11 | 0.17 | 0.06 | 95 | 1017.4 |
| 20260831042513 | 69 | 203 | 0.0 | 0.0 | 0.12 | 0.17 | 0.06 | 95 | 1017.3 |
| 20260831042015 | 69 | 203 | 0.0 | 0.0 | 0.11 | 0.15 | 0.04 | 94 | 1017.4 |
| 20260831041532 | 69 | 203 | 0.0 | 0.0 | 0.10 | 0.14 | 0.03 | 94 | 1017.4 |
| 20260831041014 | 69 | 203 | 0.0 | 0.0 | 0.10 | 0.13 | 0.02 | 94 | 1017.5 |
| 20260831040514 | 69 | 203 | 0.0 | 0.0 | 0.10 | 0.12 | 0.01 | 94 | 1017.6 |
| 20260831040042 | 69 | 203 | 0.0 | 0.0 | 0.10 | 0.11 | 0.00 | 94 | 1017.6 |
| 20260831035518 | 69 | 203 | 0.0 | 0.0 | 0.10 | 0.10 | 0.10 | 94 | 1017.5 |
| 20260831035017 | 69 | 203 | 0.0 | 0.0 | 0.09 | 0.09 | 0.09 | 94 | 1017.6 |
| 20260831034535 | 69 | 203 | 0.0 | 0.0 | 0.08 | 0.08 | 0.08 | 94 | 1017.5 |
| 20260831034010 | 68 | 203 | 0.0 | 0.0 | 0.08 | 0.08 | 0.08 | 94 | 1017.6 |
| 20260831033510 | 68 | 203 | 0.0 | 0.0 | 0.07 | 0.07 | 0.07 | 93 | 1017.6 |
| 20260831033018 | 68 | 203 | 0.0 | 0.0 | 0.06 | 0.06 | 0.06 | 92 | 1017.8 |
| 20260831032513 | 68 | 203 | 0.0 | 0.0 | 0.05 | 0.05 | 0.05 | 92 | 1017.9 |
| 20260831032012 | 69 | 203 | 0.0 | 0.0 | 0.04 | 0.04 | 0.04 | 91 | 1018.0 |
| 20260831031525 | 69 | 208 | 0.0 | 0.0 | 0.04 | 0.04 | 0.04 | 92 | 1018.0 |
| 20260831031017 | 70 | 208 | 0.0 | 0.0 | 0.03 | 0.03 | 0.03 | 93 | 1018.2 |
| 20260831030513 | 70 | 208 | 0.0 | 0.0 | 0.02 | 0.02 | 0.02 | 92 | 1018.1 |
| 20260831030030 | 70 | 208 | 0.0 | 0.0 | 0.01 | 0.01 | 0.01 | 92 | 1018.0 |
| 20260831025516 | 70 | 208 | 0.0 | 0.0 | 0.00 | 0.00 | 0.00 | 91 | 1018.0 |
| 20260831025019 | 70 | 214 | 0.0 | 0.0 | 0.00 | 0.00 | 0.00 | 91 | 1017.9 |
| 20260831024529 | 70 | 213 | 0.0 | 0.0 | 0.00 | 0.00 | 0.00 | 91 | 1017.8 |
| 20260831024018 | 70 | 210 | 0.0 | 0.0 | 0.00 | 0.00 | 0.00 | 90 | 1017.8 |
| 20260831023516 | 71 | 210 | 0.0 | 0.0 | 0.00 | 0.00 | 0.00 | 90 | 1017.9 |
| 20260831023039 | 71 | 210 | 0.0 | 0.0 | 0.00 | 0.00 | 0.00 | 89 | 1017.9 |
| 20260831022513 | 71 | 210 | 0.0 | 0.0 | 0.00 | 0.00 | 0.00 | 89 | 1018.0 |
| 20260831022010 | 71 | 210 | 0.0 | 0.0 | 0.00 | 0.00 | 0.00 | 88 | 1018.0 |
| 20260831021539 | 71 | 211 | 0.0 | 0.0 | 0.00 | 0.00 | 0.00 | 88 | 1018.0 |
| 20260831021011 | 71 | 211 | 0.0 | 0.0 | 0.00 | 0.00 | 0.00 | 87 | 1018.0 |
| 20260831020514 | 71 | 217 | 0.0 | 0.0 | 0.00 | 0.00 | 0.00 | 87 | 1017.9 |
| 20260831020029 | 71 | 214 | 0.0 | 0.0 | 0.00 | 0.00 | 0.00 | 87 | 1017.9 |
| 20260831015519 | 71 | 212 | 0.0 | 0.0 | 0.00 | 0.00 | 0.00 | 87 | 1017.9 |
| 20260831015017 | 71 | 212 | 0.0 | 0.0 | 0.00 | 0.00 | 0.00 | 87 | 1017.8 |
| 20260831014531 | 71 | 212 | 0.0 | 0.0 | 0.00 | 0.00 | 0.00 | 87 | 1017.8 |
| 20260831014016 | 71 | 214 | 0.0 | 0.0 | 0.00 | 0.00 | 0.00 | 87 | 1017.9 |
| 20260831013518 | 71 | 214 | 0.0 | 0.0 | 0.00 | 0.00 | 0.00 | 87 | 1017.9 |
| 20260831013032 | 71 | 214 | 0.0 | 0.0 | 0.00 | 0.00 | 0.00 | 87 | 1017.9 |
| 20260831012518 | 71 | 195 | 0.0 | 0.0 | 0.00 | 0.00 | 0.00 | 87 | 1017.9 |
| 20260831012016 | 71 | 189 | 0.0 | 0.0 | 0.00 | 0.00 | 0.00 | 87 | 1017.8 |
| 20260831011515 | 71 | 192 | 0.0 | 0.0 | 0.00 | 0.00 | 0.00 | 87 | 1017.8 |
| 20260831011012 | 71 | 194 | 0.0 | 0.0 | 0.00 | 0.00 | 0.00 | 86 | 1017.8 |
| 20260831010512 | 72 | 190 | 0.0 | 0.0 | 0.00 | 0.00 | 0.00 | 86 | 1017.8 |
| 20260831010041 | 72 | 196 | 0.0 | 0.0 | 0.00 | 0.00 | 0.00 | 86 | 1017.7 |
| 20260831005515 | 72 | 207 | 0.0 | 0.0 | 0.00 | 0.00 | 0.00 | 86 | 1017.8 |
| 20260831005014 | 72 | 197 | 0.0 | 0.0 | 0.00 | 0.00 | 0.00 | 85 | 1017.8 |
| 20260831004528 | 72 | 196 | 0.0 | 0.0 | 0.00 | 0.00 | 0.00 | 85 | 1017.9 |
| 20260831004015 | 72 | 205 | 0.0 | 0.0 | 0.00 | 0.00 | 0.00 | 84 | 1017.9 |
| 20260831003518 | 72 | 210 | 0.0 | 0.0 | 0.00 | 0.00 | 0.00 | 84 | 1017.8 |
| 20260831003030 | 72 | 216 | 0.0 | 0.0 | 0.00 | 0.00 | 0.00 | 83 | 1017.8 |
| 20260831002516 | 71 | 181 | 0.0 | 0.0 | 0.00 | 0.00 | 0.00 | 82 | 1017.7 |
| 20260831002012 | 71 | 199 | 0.0 | 0.0 | 0.00 | 0.00 | 0.00 | 82 | 1017.7 |
| 20260831001527 | 72 | 199 | 0.0 | 0.0 | 0.00 | 0.00 | 0.00 | 82 | 1017.6 |
| 20260831001010 | 71 | 195 | 0.0 | 0.0 | 0.00 | 0.00 | 0.00 | 82 | 1017.6 |
| 20260831000511 | 71 | 198 | 0.0 | 0.0 | 0.00 | 0.00 | 0.00 | 82 | 1017.6 |
| 20260831000020 | 71 | 200 | 0.0 | 0.0 | 0.00 | 0.00 | 0.00 | 82 | 1017.5 |
| 20260830235514 | 71 | 198 | 0.0 | 0.0 | 0.00 | 0.00 | 0.00 | 82 | 1017.4 |
| 20260830235013 | 71 | 198 | 0.0 | 0.0 | 0.00 | 0.00 | 0.00 | 82 | 1017.4 |
| 20260830234529 | 71 | 200 | 0.0 | 0.0 | 0.00 | 0.00 | 0.00 | 82 | 1017.5 |
| 20260830234002 | 71 | 211 | 0.0 | 0.0 | 0.00 | 0.00 | 0.00 | 82 | 1017.6 |
| 20260830233503 | 71 | 198 | 0.0 | 0.0 | 0.00 | 0.00 | 0.00 | 82 | 1017.5 |
| 20260830233008 | 71 | 198 | 0.0 | 0.0 | 0.00 | 0.00 | 0.00 | 82 | 1017.5 |
| 20260830232504 | 71 | 197 | 0.0 | 0.0 | 0.00 | 0.00 | 0.00 | 82 | 1017.5 |
| 20260830232008 | 71 | 207 | 0.0 | 0.0 | 0.00 | 0.00 | 0.00 | 81 | 1017.5 |
| 20260830231515 | 71 | 207 | 0.0 | 0.0 | 0.00 | 0.00 | 0.00 | 81 | 1017.5 |
| 20260830231010 | 71 | 207 | 0.0 | 0.0 | 0.00 | 0.00 | 0.00 | 81 | 1017.4 |
| 20260830230508 | 71 | 195 | 0.0 | 0.0 | 0.00 | 0.00 | 0.00 | 81 | 1017.5 |
| 20260830230018 | 71 | 195 | 0.0 | 0.0 | 0.00 | 0.00 | 0.00 | 80 | 1017.5 |
| 20260830225512 | 71 | 210 | 0.0 | 0.0 | 0.00 | 0.00 | 0.00 | 81 | 1017.6 |
| 20260830225012 | 71 | 210 | 0.0 | 0.0 | 0.00 | 0.00 | 0.00 | 80 | 1017.6 |
| 20260830224524 | 71 | 210 | 0.0 | 0.0 | 0.00 | 0.00 | 0.00 | 80 | 1017.8 |
| 20260830224014 | 71 | 210 | 0.0 | 0.0 | 0.00 | 0.00 | 0.00 | 80 | 1017.7 |
| 20260830223516 | 71 | 205 | 0.0 | 0.0 | 0.00 | 0.00 | 0.00 | 80 | 1017.7 |
| 20260830223007 | 71 | 203 | 0.0 | 0.0 | 0.00 | 0.00 | 0.00 | 80 | 1017.8 |
| 20260830222504 | 72 | 203 | 0.0 | 0.0 | 0.00 | 0.00 | 0.00 | 80 | 1017.9 |
| 20260830222003 | 72 | 203 | 0.0 | 0.0 | 0.00 | 0.00 | 0.00 | 80 | 1017.9 |
| 20260830221508 | 72 | 215 | 0.0 | 0.0 | 0.00 | 0.00 | 0.00 | 79 | 1018.0 |
| 20260830221008 | 72 | 208 | 0.0 | 0.0 | 0.00 | 0.00 | 0.00 | 78 | 1017.9 |
| 20260830220508 | 72 | 210 | 0.0 | 0.0 | 0.00 | 0.00 | 0.00 | 77 | 1018.0 |
| 20260830220014 | 72 | 215 | 0.0 | 0.0 | 0.00 | 0.00 | 0.00 | 78 | 1018.0 |
| 20260830215510 | 72 | 215 | 0.0 | 0.0 | 0.00 | 0.00 | 0.00 | 77 | 1018.0 |
| 20260830215012 | 72 | 211 | 0.0 | 0.0 | 0.00 | 0.00 | 0.00 | 77 | 1018.0 |
| 20260830214522 | 72 | 211 | 0.0 | 0.0 | 0.00 | 0.00 | 0.00 | 77 | 1017.9 |
| 20260830214011 | 72 | 211 | 0.0 | 0.0 | 0.00 | 0.00 | 0.00 | 77 | 1017.9 |
| 20260830213517 | 72 | 211 | 0.0 | 0.0 | 0.00 | 0.00 | 0.00 | 76 | 1017.9 |
| 20260830213028 | 72 | 211 | 0.0 | 0.0 | 0.00 | 0.00 | 0.00 | 76 | 1017.9 |
| 20260830212516 | 72 | 212 | 0.0 | 0.0 | 0.00 | 0.00 | 0.00 | 76 | 1017.9 |
| 20260830212016 | 72 | 212 | 0.0 | 0.0 | 0.00 | 0.00 | 0.00 | 75 | 1018.0 |
| 20260830211516 | 72 | 198 | 0.0 | 0.0 | 0.00 | 0.00 | 0.00 | 75 | 1018.0 |
| 20260830211006 | 73 | 198 | 0.0 | 0.0 | 0.00 | 0.00 | 0.00 | 74 | 1018.1 |
| 20260830210508 | 73 | 198 | 0.0 | 0.0 | 0.00 | 0.00 | 0.00 | 73 | 1018.1 |
| 20260830210014 | 73 | 201 | 0.0 | 0.0 | 0.00 | 0.00 | 0.00 | 73 | 1018.1 |
| 20260830205513 | 73 | 202 | 0.0 | 0.0 | 0.00 | 0.00 | 0.00 | 75 | 1018.1 |
| 20260830205011 | 73 | 202 | 0.0 | 0.0 | 0.00 | 0.00 | 0.00 | 74 | 1018.0 |
| 20260830204515 | 73 | 202 | 0.0 | 0.0 | 0.00 | 0.00 | 0.00 | 77 | 1018.0 |
| 20260830204012 | 73 | 202 | 0.0 | 0.0 | 0.00 | 0.00 | 0.00 | 78 | 1018.1 |
| 20260830203512 | 73 | 214 | 0.0 | 0.0 | 0.00 | 0.00 | 0.00 | 78 | 1018.1 |
| 20260830203021 | 73 | 222 | 0.0 | 0.0 | 0.00 | 0.00 | 0.00 | 77 | 1018.1 |
| 20260830202515 | 73 | 199 | 0.0 | 0.0 | 0.00 | 0.00 | 0.00 | 76 | 1018.2 |
| 20260830202016 | 73 | 204 | 0.0 | 0.0 | 0.00 | 0.00 | 0.00 | 76 | 1018.2 |
| 20260830201531 | 74 | 204 | 0.0 | 0.0 | 0.00 | 0.00 | 0.00 | 76 | 1018.2 |
| 20260830201015 | 74 | 214 | 0.0 | 0.0 | 0.00 | 0.00 | 0.00 | 75 | 1018.2 |
| 20260830200518 | 74 | 183 | 0.0 | 0.0 | 0.00 | 0.00 | 0.00 | 75 | 1018.3 |
| 20260830200007 | 74 | 184 | 0.0 | 0.0 | 0.00 | 0.00 | 0.00 | 74 | 1018.3 |
| 20260830195507 | 74 | 209 | 0.0 | 0.0 | 0.00 | 0.00 | 0.00 | 73 | 1018.3 |
| 20260830195009 | 74 | 214 | 0.0 | 0.0 | 0.00 | 0.00 | 0.00 | 73 | 1018.3 |
| 20260830194515 | 74 | 204 | 0.0 | 0.0 | 0.00 | 0.00 | 0.00 | 72 | 1018.4 |
| 20260830194011 | 74 | 196 | 0.0 | 0.0 | 0.00 | 0.00 | 0.00 | 71 | 1018.4 |
| 20260830193511 | 75 | 200 | 0.0 | 0.0 | 0.00 | 0.00 | 0.00 | 72 | 1018.4 |
| 20260830193019 | 75 | 203 | 0.0 | 0.0 | 0.00 | 0.00 | 0.00 | 71 | 1018.4 |
| 20260830192513 | 75 | 192 | 0.0 | 0.0 | 0.00 | 0.00 | 0.00 | 72 | 1018.5 |
| 20260830192014 | 74 | 201 | 0.0 | 0.0 | 0.00 | 0.00 | 0.00 | 73 | 1018.5 |
| 20260830191527 | 74 | 200 | 0.0 | 0.0 | 0.00 | 0.00 | 0.00 | 73 | 1018.5 |
| 20260830191014 | 74 | 203 | 0.0 | 0.0 | 0.00 | 0.00 | 0.00 | 74 | 1018.5 |
| 20260830190516 | 74 | 197 | 0.0 | 0.0 | 0.00 | 0.00 | 0.00 | 75 | 1018.6 |
| 20260830190032 | 74 | 209 | 0.0 | 0.0 | 0.00 | 0.00 | 0.00 | 75 | 1018.8 |
| 20260830185518 | 74 | 219 | 0.0 | 0.0 | 0.00 | 0.00 | 0.00 | 76 | 1018.9 |
| 20260830185018 | 74 | 195 | 0.0 | 0.0 | 0.00 | 0.00 | 0.00 | 76 | 1019.1 |
| 20260830184515 | 74 | 186 | 0.0 | 0.0 | 0.00 | 0.00 | 0.00 | 77 | 1019.1 |
| 20260830184007 | 74 | 191 | 0.0 | 0.0 | 0.00 | 0.00 | 0.00 | 78 | 1019.1 |
| 20260830183511 | 74 | 205 | 0.0 | 0.0 | 0.00 | 0.00 | 0.00 | 77 | 1019.2 |
| 20260830183018 | 74 | 212 | 0.0 | 0.0 | 0.00 | 0.00 | 0.00 | 78 | 1019.2 |
| 20260830182512 | 74 | 199 | 0.0 | 0.0 | 0.00 | 0.00 | 0.00 | 77 | 1019.4 |
| 20260830182014 | 74 | 208 | 0.0 | 0.0 | 0.00 | 0.00 | 0.00 | 77 | 1019.4 |
| 20260830181535 | 74 | 172 | 0.0 | 0.0 | 0.00 | 0.00 | 0.00 | 75 | 1019.5 |
| 20260830181015 | 74 | 195 | 0.0 | 0.0 | 0.00 | 0.00 | 0.00 | 74 | 1019.6 |
| 20260830180515 | 75 | 183 | 0.0 | 0.0 | 0.00 | 0.00 | 0.00 | 73 | 1019.6 |
| 20260830180047 | 75 | 181 | 0.0 | 0.0 | 0.00 | 0.00 | 0.00 | 74 | 1019.7 |
| 20260830175514 | 75 | 200 | 0.0 | 0.0 | 0.00 | 0.00 | 0.00 | 73 | 1019.7 |
| 20260830175016 | 74 | 181 | 0.0 | 0.0 | 0.00 | 0.00 | 0.00 | 73 | 1019.8 |
| 20260830174533 | 74 | 205 | 0.0 | 0.0 | 0.00 | 0.00 | 0.00 | 75 | 1019.8 |
| 20260830174021 | 74 | 181 | 0.0 | 0.0 | 0.00 | 0.00 | 0.00 | 77 | 1019.8 |
| 20260830173518 | 74 | 184 | 0.0 | 0.0 | 0.00 | 0.00 | 0.00 | 78 | 1019.7 |
| 20260830173021 | 73 | 209 | 0.0 | 0.0 | 0.00 | 0.00 | 0.00 | 79 | 1019.8 |
| 20260830172511 | 73 | 184 | 0.0 | 0.0 | 0.00 | 0.00 | 0.00 | 78 | 1019.8 |
| 20260830172011 | 74 | 200 | 0.0 | 0.0 | 0.00 | 0.00 | 0.00 | 78 | 1019.9 |
| 20260830171521 | 74 | 170 | 0.0 | 0.0 | 0.00 | 0.00 | 0.00 | 78 | 1019.8 |
| 20260830171014 | 74 | 194 | 0.0 | 0.0 | 0.00 | 0.00 | 0.00 | 78 | 1019.8 |
| 20260830170516 | 74 | 175 | 0.0 | 0.0 | 0.00 | 0.00 | 0.00 | 78 | 1019.9 |
| 20260830170028 | 74 | 200 | 0.0 | 0.0 | 0.00 | 0.00 | 0.00 | 78 | 1019.8 |
| 20260830165514 | 74 | 177 | 0.0 | 0.0 | 0.00 | 0.00 | 0.00 | 79 | 1019.8 |
| 20260830165016 | 74 | 186 | 0.0 | 0.0 | 0.00 | 0.00 | 0.00 | 79 | 1019.8 |
| 20260830164528 | 74 | 188 | 0.0 | 0.0 | 0.00 | 0.00 | 0.00 | 79 | 1019.8 |
| 20260830164018 | 74 | 193 | 0.0 | 0.0 | 0.00 | 0.00 | 0.00 | 81 | 1019.9 |
| 20260830163519 | 74 | 205 | 0.0 | 0.0 | 0.00 | 0.00 | 0.00 | 80 | 1019.9 |
| 20260830163033 | 74 | 177 | 0.0 | 0.0 | 0.00 | 0.00 | 0.00 | 80 | 1019.9 |
| 20260830162519 | 74 | 177 | 0.0 | 0.0 | 0.00 | 0.00 | 0.00 | 80 | 1019.9 |
| 20260830162013 | 74 | 201 | 0.0 | 0.0 | 0.00 | 0.00 | 0.00 | 80 | 1019.9 |
| 20260830161518 | 74 | 198 | 0.0 | 0.0 | 0.00 | 0.00 | 0.00 | 80 | 1020.0 |
| 20260830161012 | 74 | 212 | 0.0 | 0.0 | 0.00 | 0.00 | 0.00 | 80 | 1020.1 |
| 20260830160514 | 74 | 196 | 0.0 | 0.0 | 0.00 | 0.00 | 0.00 | 81 | 1020.1 |
| 20260830160032 | 74 | 191 | 0.0 | 0.0 | 0.00 | 0.00 | 0.00 | 81 | 1020.2 |
| 20260830155519 | 73 | 191 | 0.0 | 0.0 | 0.00 | 0.00 | 0.00 | 80 | 1020.3 |
| 20260830155014 | 73 | 197 | 0.0 | 0.0 | 0.00 | 0.00 | 0.00 | 82 | 1020.4 |
| 20260830154532 | 73 | 207 | 0.0 | 0.0 | 0.00 | 0.00 | 0.00 | 82 | 1020.5 |
| 20260830154016 | 73 | 197 | 0.0 | 0.0 | 0.00 | 0.00 | 0.00 | 81 | 1020.5 |
| 20260830153518 | 73 | 193 | 0.0 | 0.0 | 0.00 | 0.00 | 0.00 | 80 | 1020.5 |
| 20260830153033 | 73 | 181 | 0.0 | 0.0 | 0.00 | 0.00 | 0.00 | 82 | 1020.5 |
| 20260830152516 | 73 | 196 | 0.0 | 0.0 | 0.00 | 0.00 | 0.00 | 82 | 1020.6 |
| 20260830152009 | 73 | 186 | 0.0 | 0.0 | 0.00 | 0.00 | 0.00 | 83 | 1020.7 |
| 20260830151519 | 73 | 183 | 0.0 | 0.0 | 0.00 | 0.00 | 0.00 | 83 | 1020.7 |
| 20260830151012 | 73 | 192 | 0.0 | 0.0 | 0.00 | 0.00 | 0.00 | 83 | 1020.9 |
| 20260830150512 | 72 | 205 | 0.0 | 0.0 | 0.00 | 0.00 | 0.00 | 84 | 1020.8 |
| 20260830150019 | 72 | 191 | 0.0 | 0.0 | 0.00 | 0.00 | 0.00 | 84 | 1020.8 |
| 20260830145512 | 72 | 188 | 0.0 | 0.0 | 0.00 | 0.00 | 0.00 | 85 | 1020.8 |
| 20260830145015 | 72 | 197 | 0.0 | 0.0 | 0.00 | 0.00 | 0.00 | 85 | 1020.9 |
| 20260830144503 | 72 | 210 | 0.0 | 0.0 | 0.00 | 0.00 | 0.00 | 86 | 1020.9 |
| 20260830144005 | 71 | 208 | 0.0 | 0.0 | 0.00 | 0.00 | 0.00 | 85 | 1021.0 |
| 20260830143504 | 71 | 190 | 0.0 | 0.0 | 0.00 | 0.00 | 0.00 | 85 | 1021.0 |
| 20260830143006 | 72 | 213 | 0.0 | 0.0 | 0.00 | 0.00 | 0.00 | 84 | 1021.1 |
| 20260830142506 | 72 | 220 | 0.0 | 0.0 | 0.00 | 0.00 | 0.00 | 84 | 1021.0 |
| 20260830142009 | 72 | 154 | 0.0 | 0.0 | 0.00 | 0.00 | 0.00 | 85 | 1021.2 |
| 20260830141511 | 72 | 185 | 0.0 | 0.0 | 0.00 | 0.00 | 0.00 | 85 | 1021.1 |
| 20260830141009 | 72 | 188 | 0.0 | 0.0 | 0.00 | 0.00 | 0.00 | 85 | 1021.1 |
| 20260830140509 | 72 | 180 | 0.0 | 0.0 | 0.00 | 0.00 | 0.00 | 86 | 1021.1 |
| 20260830140018 | 72 | 180 | 0.0 | 0.0 | 0.00 | 0.00 | 0.00 | 85 | 1021.3 |
| 20260830135514 | 71 | 180 | 0.0 | 0.0 | 0.00 | 0.00 | 0.00 | 85 | 1021.4 |
| 20260830135016 | 71 | 186 | 0.0 | 0.0 | 0.00 | 0.00 | 0.00 | 85 | 1021.4 |
| 20260830134537 | 71 | 191 | 0.0 | 0.0 | 0.00 | 0.00 | 0.00 | 86 | 1021.5 |
| 20260830134016 | 71 | 191 | 0.0 | 0.0 | 0.00 | 0.00 | 0.00 | 85 | 1021.5 |
| 20260830133505 | 71 | 192 | 0.0 | 0.0 | 0.00 | 0.00 | 0.00 | 85 | 1021.6 |
| 20260830133006 | 71 | 218 | 0.0 | 0.0 | 0.00 | 0.00 | 0.00 | 85 | 1021.6 |
| 20260830132504 | 71 | 197 | 0.0 | 0.0 | 0.00 | 0.00 | 0.00 | 85 | 1021.7 |
| 20260830132003 | 71 | 203 | 0.0 | 0.0 | 0.00 | 0.00 | 0.00 | 85 | 1021.8 |
| 20260830131510 | 71 | 205 | 0.0 | 0.0 | 0.00 | 0.00 | 0.00 | 85 | 1021.7 |
| 20260830131006 | 71 | 202 | 0.0 | 0.0 | 0.00 | 0.00 | 0.00 | 85 | 1021.7 |
| 20260830130509 | 70 | 202 | 0.0 | 0.0 | 0.00 | 0.00 | 0.00 | 86 | 1021.6 |
| 20260830130014 | 70 | 219 | 0.0 | 0.0 | 0.00 | 0.00 | 0.00 | 86 | 1021.6 |
| 20260830125512 | 70 | 219 | 0.0 | 0.0 | 0.00 | 0.00 | 0.00 | 86 | 1021.7 |
| 20260830125013 | 70 | 224 | 0.0 | 0.0 | 0.00 | 0.00 | 0.00 | 86 | 1021.7 |
| 20260830124522 | 70 | 224 | 0.0 | 0.0 | 0.00 | 0.00 | 0.00 | 86 | 1021.7 |
| 20260830124015 | 70 | 245 | 0.0 | 0.0 | 0.00 | 0.00 | 0.00 | 86 | 1021.8 |
| 20260830123512 | 70 | 245 | 0.0 | 0.0 | 0.00 | 0.00 | 0.00 | 86 | 1021.8 |
| 20260830123027 | 70 | 245 | 0.0 | 0.0 | 0.00 | 0.00 | 0.00 | 86 | 1021.8 |
| 20260830122516 | 70 | 259 | 0.0 | 0.0 | 0.00 | 0.00 | 0.00 | 87 | 1021.8 |
| 20260830122005 | 69 | 260 | 0.0 | 0.0 | 0.00 | 0.00 | 0.00 | 87 | 1021.8 |
| 20260830121505 | 69 | 260 | 0.0 | 0.0 | 0.00 | 0.00 | 0.00 | 87 | 1021.8 |
| 20260830121007 | 69 | 260 | 0.0 | 0.0 | 0.00 | 0.00 | 0.00 | 87 | 1021.8 |
| 20260830120507 | 69 | 260 | 0.0 | 0.0 | 0.00 | 0.00 | 0.00 | 87 | 1021.7 |
| 20260830120013 | 69 | 260 | 0.0 | 0.0 | 0.00 | 0.00 | 0.00 | 86 | 1021.7 |
| 20260830115509 | 69 | 260 | 0.0 | 0.0 | 0.00 | 0.00 | 0.00 | 85 | 1021.7 |
| 20260830115014 | 69 | 260 | 0.0 | 0.0 | 0.00 | 0.00 | 0.00 | 84 | 1021.6 |
| 20260830114516 | 69 | 260 | 0.0 | 0.0 | 0.00 | 0.00 | 0.00 | 84 | 1021.6 |
| 20260830114010 | 69 | 260 | 0.0 | 0.0 | 0.00 | 0.00 | 0.00 | 84 | 1021.6 |
| 20260830113514 | 69 | 260 | 0.0 | 0.0 | 0.00 | 0.00 | 0.00 | 85 | 1021.6 |
| 20260830113026 | 68 | 260 | 0.0 | 0.0 | 0.00 | 0.00 | 0.00 | 85 | 1021.6 |
| 20260830112516 | 68 | 260 | 0.0 | 0.0 | 0.00 | 0.00 | 0.00 | 86 | 1021.5 |
| 20260830112016 | 68 | 260 | 0.0 | 0.0 | 0.00 | 0.00 | 0.00 | 86 | 1021.6 |
| 20260830111530 | 67 | 260 | 0.0 | 0.0 | 0.00 | 0.00 | 0.00 | 86 | 1021.6 |
| 20260830111016 | 67 | 260 | 0.0 | 0.0 | 0.00 | 0.00 | 0.00 | 87 | 1021.7 |
| 20260830110506 | 66 | 260 | 0.0 | 0.0 | 0.00 | 0.00 | 0.00 | 89 | 1021.7 |